User: anonymous   Login
Location: *
(33.8649°S, 62.1526°E)
Time: 05:38:38
(UTC+00:00)
Language:

CZ-4 R/B - Orbit

View from above orbital plane
View from above orbital plane
View from above satellite
View from above satellite

Ground track
Ground track

The orbit data is extracted from the following two-line orbital elements,

1 29507U 06046C   21108.55341849  .00001178  00000-0  95715-4 0  9998
2 29507  97.7280 134.7554 0046617 216.9674 142.8335 15.00775147791129
Epoch (UTC): 18 April 2021 13:16:55
Eccentricity: 0.0046617
inclination: 97.7280°
perigee height: 532 km
apogee height: 597 km
right ascension of ascending node: 134.7554°
argument of perigee: 216.9674°
revolutions per day: 15.00775147
mean anomaly at epoch: 142.8335°
orbit number at epoch: 79112

The dashed part of the orbit path shows where the satellite is in the earth's shadow,  

DLR